Regional Weather Roundup
Issued by NWS Grand Forks, ND

Home | Current Version | Previous Version | Graphics & Text | Print | Product List | Glossary On
Versions: 1 2 3 4 5 6 7 8 9 10 11 12 13 14 15 16 17 18 19 20 21 22 23 24 25 26 27 28 29 30 31 32 33 34 35 36 37 38 39 40 41 42 43 44 45 46 47 48 49 50
000
ASUS43 KFGF 022010
RWRFGF
PRAIRIE TO PINES  WEATHER ROUNDUP
NATIONAL WEATHER SERVICE EASTERN NORTH DAKOTA/GRAND FORKS ND
200 PM CST MON MAR 02 2015

 **SATELLITE DATA USED TO AUGMENT SKY COVER AT AUTOMATED STATIONS**
 *****  WEATHER ACROSS EASTERN NORTH DAKOTA  *****

CITY           SKY/WX    TMP DP  RH WIND       PRES   REMARKS
GRAND FORKS    MOSUNNY   27  15  61 S25G32    30.08  WCI  12
GRAND FRKS AFB SUNNY     28  13  54 S23G32    30.05  WCI  14
GRAND FRKS NWS   N/A     28 N/A N/A S21         N/A  WCI  15
DEVILS LAKE    SUNNY     27  16  63 S25G35    29.91F WCI  11
FARGO          SUNNY     32  12  43 S23G30    30.12  WCI  19
WAHPETON ARPT  PTCLDY    28  12  50 S22G29    30.16F WCI  15
$$

 ***** WEATHER ACROSS CENTRAL AND WESTERN NORTH DAKOTA  *****

CITY           SKY/WX    TMP DP  RH WIND       PRES   REMARKS
BISMARCK       SUNNY     36  20  52 S15       29.87
MINOT          SUNNY     30  16  56 S22G29    29.79  WCI  17
JAMESTOWN      SUNNY     29  18  63 S29G39    29.96  WCI  14
MINOT AFB      MOSUNNY   29  19  67 S22G29    29.79  WCI  15
GARRISON         N/A     32  20  61 S20       29.79F WCI  20
WILLISTON      MOSUNNY   34  16  47 SW16      29.74  WCI  24
DICKINSON      SUNNY     41  14  33 SW16G23   29.74
HETTINGER      MOSUNNY   41  14  33 SW15      29.79
$$

 *****  OTHER AIRPORT OBSERVATIONS IN OUR AREA  *****

CITY           SKY/WX    TMP DP  RH WIND       PRES   REMARKS
WALHALLA         N/A     28  16  59 S20G26    29.98F WCI  15
GRAFTON AIRPOR NOT AVBL
VALLEY CITY AR FLURRIES  28  18  64 S23G31    30.01F WCI  14
CANDO          FAIR      27  18  69 S21G30    29.88F WCI  13
CAVALIER APRT  FAIR      28  16  59 S23G30    30.00F WCI  14
GWINNER        MOCLDY    32  18  55 S25       30.07F WCI  19
SHEYENNE NWR     N/A     33  15  48 S18       29.95S WCI  22
ROLLA          FAIR      25  18  74 S23G33    29.84F WCI  10
 ***** THE ABOVE OBSERVATIONS ARE NON NWS ARE NOT QUALITY
       CONTROLLED AND MAY MIS-REPORT RAIN FOR SNOW...
$$

  *****  WEATHER ACROSS NORTHERN MINNESOTA  *****

CITY           SKY/WX    TMP DP  RH WIND       PRES   REMARKS
FLAG ISLAND    SUNNY     16  10  79 SE12      30.12F WCI   3
WARROAD        SUNNY     25  10  54 S9        30.13F WCI  15
ROSEAU         SUNNY     25  12  58 S15       30.12F WCI  12
HALLOCK        NOT AVBL
THF RVR FALLS  SUNNY     21  10  63 S21       30.12F WCI   6
BAUDETTE       MOSUNNY   24  11  57 S10       30.13  WCI  14
WASKISH        SUNNY     27  12  54 CALM      30.16F
CROOKSTON      SUNNY     27  16  63 S22G29    30.13F WCI  12
STEPHEN NDAWN    N/A     25  16  68 S22         N/A  WCI  10
GREENBUSH NDAW   N/A     21  12  68 S23         N/A  WCI   5
$$
  *****  WEATHER ACROSS CENTRAL AND WEST MINNESOTA  *****

CITY           SKY/WX    TMP DP  RH WIND       PRES   REMARKS
FOSSTON        SUNNY     27  10  50 S15       30.14F WCI  15
BEMIDJI        SUNNY     26   6  43 S12G20    30.17F WCI  16
PARK RAPIDS    SUNNY     26   7  44 S18       30.19  WCI  13
ELBOW LAKE     FAIR      26  13  57 S21       30.19F WCI  12
WADENA         SUNNY     25  10  54 S17       30.21F WCI  11
DETROIT LAKES  SUNNY     27  12  54 S21G26    30.16F HAZE    WCI  13
MOORHEAD       SUNNY     30   9  40 S23G30    30.14F WCI  17
FERGUS FALLS   SUNNY     27  10  50 S21G26    30.21F WCI  13
MORRIS MN      MOSUNNY   27  14  59 S20       30.20F WCI  13
STAPLES        SUNNY     25   9  50 S12       30.23F WCI  14
$$
  *****  WEATHER ELSEWHERE ACROSS MINNESOTA  *****

CITY           SKY/WX    TMP DP  RH WIND       PRES   REMARKS
DULUTH         SUNNY     25   8  48 SW9       30.23  WCI  15
INTRNTL FALLS  SUNNY     25   6  44 MISG      30.17
ELY            SUNNY     25   3  39 SW9       30.21F WCI  15
CLOQUET        SUNNY     25   3  39 S9        30.25F WCI  15
WHEATON        MOSUNNY   25  16  68 SE23      30.19F WCI  10
BRAINERD       SUNNY     25   9  50 S14G22    30.26  WCI  13
HIBBING        SUNNY     25   6  44 S8        30.20  WCI  16
ALEXANDRIA     SUNNY     25  10  53 S16G24    30.22  WCI  12
SAINT CLOUD    SUNNY     26   8  46 SW14      30.31  WCI  14
MINNEAPOLIS    MOSUNNY   24   4  42 S13       30.36  WCI  12
$$

  *****  WEATHER ACROSS SOUTH DAKOTA  *****

CITY           SKY/WX    TMP DP  RH WIND       PRES   REMARKS
SIOUX FALLS    CLOUDY    27  16  63 S15       30.20  WCI  15
BROOKINGS      NOT AVBL
WATERTOWN      CLOUDY    26  17  68 S18G28    30.11  WCI  13
HURON          CLOUDY    34  17  50 S22G30    30.08  WCI  22
SISSETON         N/A     29  16  58 S23G29    30.12  WCI  15
ABERDEEN       MOSUNNY   32  19  58 S31G38    30.05  WCI  17
MITCHELL       CLOUDY    33  14  45 S26G36    30.13  WCI  20
PIERRE         SUNNY     45  17  32 S30G41    29.91
MOBRIDGE       MOSUNNY   42  19  39 S24G37    29.85
RAPID CITY     PTSUNNY   47  23  38 S20       29.75
$$

  *****  SOME WEATHER IN NEARBY STATES *****

CITY           SKY/WX    TMP DP  RH WIND       PRES   REMARKS
GLASGOW MT     MOSUNNY   39  16  39 W16G23    29.76
GREAT FALLS MT LGT SNOW  28  23  81 NE16      29.89  VSB 3/4 WCI  16
CHEYENNE WY    MOSUNNY   34  23  64 VRB6      29.75F
SCOTTSBLUFF NE PTSUNNY   43  24  47 S15G22    29.81
OMAHA NE       CLOUDY    39  20  46 S17       30.28
DES MOINES IA  CLOUDY    31  15  52 SE7       30.38  WCI  24
DAVENPORT IA   SUNNY     27  15  61 NE6       30.44  WCI  20
CHICAGO IL     CLOUDY    30  11  45 CALM      30.45
EAU CLAIRE WI  SUNNY     24   5  44 S8        30.37  WCI  15
LA CROSSE WI   MOSUNNY   27   8  44 S7        30.42  WCI  19
$$

  *****  SOME NATIONAL WEATHER *****

CITY           SKY/WX    TMP DP  RH WIND       PRES   REMARKS
LA GUARDIA NY  MOSUNNY   38  15  39 NW16G23   30.14
RALEIGH NC     PTSUNNY   60  37  42 N6        30.23
ATLANTA GA     PTSUNNY   61  50  67 NW3       30.26
NEW ORLEANS LA LGT RAIN  75  70  84 S6        30.20F
OKLAHOMA CITY  CLOUDY    36  27  69 VRB3      30.26
ALBUQUERQUE NM CLOUDY    53  33  46 S3        29.93F
SALT LAKE CITY CLOUDY    41  34  76 SW9       29.68
LOS ANGELES CA PTSUNNY   56  44  64 S6        29.92
BOISE ID       PTSUNNY   45  21  38 NW8       29.79
SEATTLE WA     PTSUNNY   47  36  65 N13       30.04
$$

*** WEATHER ACROSS MANITOBA...SASKATCHEWAN AND ONTARIO ***
                ***ONTARIO***

CITY           SKY/WX    TMP DP  RH WIND       PRES   REMARKS
GERALDTON      MOSUNNY   16 -11  29 W13       30.21F WCI   2
THUNDER BAY    MOSUNNY   23   3  42 E6        30.28F WCI  16
SIOUX LOOKOUT  PTSUNNY   19  -2  38 SW9       30.14F WCI   9
TORONTO        MOSUNNY   25   7  46 W25G32    30.34R WCI   9
BIG TROUT LK   SUNNY     16   0  48 SW9       29.96F WCI   4
PICKLE LAKE    PTSUNNY   18  -6  35 S15       30.07F WCI   3
DRYDEN         SUNNY     21   0  39 SW12G24   30.13F WCI   9
KENORA         PTSUNNY   19   9  63 S15G24    30.10F WCI   5
$$
                *** MANITOBA***

CITY           SKY/WX    TMP DP  RH WIND       PRES   REMARKS
BRANDON        PTSUNNY   27  14  59 S20G25    29.83F WCI  13
DAUPHIN        SUNNY     28  12  50 SW17G25   29.77F WCI  16
ISLAND LAKE    CLOUDY    21   5  49 S14G21    29.86F WCI   8
PILOT MOUND      N/A     19  16  86 S26G32      N/A  WCI   1
THE PAS        CLOUDY    25   9  50 W10       29.67F WCI  15
THOMPSON       CLOUDY    21   5  49 SW9       29.63F WCI  11
WINNIPEG       PTSUNNY   19  10  68 S23       30.02F WCI   2
LYNN LAKE      LGT SNOW  14  10  85 NW17G26   29.63R VSB 3/4 WCI  -3
CHURCHILL      CLOUDY    -4 -11  71 E13       29.80S WCI -23
GILLAM         CLOUDY    19   3  49 S15G22    29.69F WCI   5
$$
                ***SASKATCHEWAN***

CITY           SKY/WX    TMP DP  RH WIND       PRES   REMARKS
ESTEVAN        PTSUNNY   28  16  59 SW20G25   29.72F WCI  15
KINDERSLEY     BLWGSNOW  18  12  79 N30G40    29.93R VSB 1   WCI  -2
LLOYDMINSTER   PTSUNNY   14   3  62 N20G33    29.98R WCI  -3
PRINCE ALBERT  FLURRIES  18   9  68 N24       29.81R WCI   0
REGINA         PTSUNNY   23  16  74 W18       29.70F WCI   9
YORKTON        SUNNY     21  12  68 SW17G24   29.68F WCI   7
N. BATTLEFORD  LGT SNOW  14   7  73 NW30G44   29.94R VSB 1   WCI  -7
LA RONGE       FLURRIES  12   3  67 NW20G29   29.84R WCI  -6
SASKATOON      PTSUNNY   18  12  79 N22G32    29.85R BLWGSNOWWCI   0
SWIFT CURRENT  LGT SNOW  18  14  86 N24G33    29.83R WCI   0
$$
NOTE: THESE ARE AUTOMATED STATIONS WITH LIMITED QUALITY CONTROL
      "FAIR" INDICATES FEW OR NO CLOUDS BELOW 12,000 FEET WITH NO
      SIGNIFICANT WEATHER AND/OR OBSTRUCTIONS TO VISIBILITY.
      SKY/WX - SKY CONDITION AND SIGNIFICANT WEATHER.
      TMP - AIR TEMPERATURE.    DP   - DEWPOINT TEMPERATURE.
      RH  - RELATIVE HUMIDITY.  PRES - PRESSURE.
      HX  - HEAT INDEX.         WCI  - WIND CHILL INDEX.
$


USA.gov is the U.S. government's official web portal to all federal, state and local government web resources and services.